Date,TemperatureHighF,TemperatureAvgF,TemperatureLowF,DewpointHighF,DewpointAvgF,DewpointLowF,HumidityHigh,HumidityAvg,HumidityLow,PressureMaxIn,PressureMinIn,WindSpeedMaxMPH,WindSpeedAvgMPH,GustSpeedMaxMPH,PrecipitationSumIn
2013-3-1,46,36,24,26,17,7,61,47,35,0.00,40.00,17,6,20,0.00
2013-3-2,54,43,35,28,21,14,63,43,23,0.00,40.00,41,12,52,0.00
2013-3-3,44,39,23,31,22,10,84,52,31,0.00,40.00,33,18,45,0.00
2013-3-4,23,18,12,19,12,5,94,77,50,0.00,40.00,14,6,17,0.11
2013-3-5,35,24,11,16,8,-1,78,51,27,0.00,40.00,33,12,41,0.00
2013-3-6,45,37,29,28,16,5,72,41,29,0.00,40.00,39,24,47,0.00
2013-3-7,41,36,27,30,22,12,89,60,35,0.00,40.00,24,9,32,0.00
2013-3-8,42,34,30,29,24,21,95,65,51,0.00,40.00,11,3,12,0.00
2013-3-9,32,28,25,28,20,13,98,71,46,0.00,40.00,19,10,27,0.08
2013-3-10,47,34,21,21,13,4,67,42,27,0.00,40.00,14,4,19,0.00
2013-3-11,39,34,26,24,17,9,89,51,32,0.00,40.00,14,6,19,0.00
2013-3-12,45,32,19,24,19,11,93,63,35,0.00,40.00,24,5,29,0.00
2013-3-13,53,44,37,28,21,15,53,41,25,0.00,40.00,26,8,33,0.00
2013-3-14,56,49,41,27,21,15,46,33,25,0.00,40.00,30,13,37,0.00
2013-3-15,61,51,43,23,18,9,38,27,18,0.00,40.00,42,13,45,0.00
2013-3-16,51,40,29,26,18,6,80,46,16,0.00,40.00,26,6,28,0.00
2013-3-17,40,31,21,27,10,-3,82,44,25,0.00,40.00,52,26,69,0.00
2013-3-18,37,27,17,14,5,-1,63,41,21,0.00,40.00,35,15,45,0.00
2013-3-19,41,30,19,15,2,-5,81,32,15,0.00,40.00,32,7,44,0.00
2013-3-20,52,37,25,31,13,-10,81,40,13,0.00,40.00,32,15,41,0.00
2013-3-21,41,32,22,30,23,-2,97,71,33,0.00,40.00,31,10,35,0.17
2013-3-22,24,19,15,18,8,-4,94,65,33,0.00,40.00,17,5,23,0.36
2013-3-23,17,13,10,15,11,8,94,92,91,0.00,40.00,11,7,16,0.39
2013-3-25,32,23,11,17,5,-1,73,47,27,0.00,40.00,31,14,36,0.00
2013-3-26,44,33,24,22,10,-2,53,38,27,0.00,40.00,16,3,20,0.00
2013-3-27,48,38,26,25,18,14,62,46,32,0.00,40.00,14,4,17,0.00
2013-3-28,55,44,33,27,21,15,55,40,25,0.00,40.00,24,7,27,0.00
2013-3-29,57,47,41,29,24,19,57,41,26,0.00,40.00,24,6,28,0.00
2013-3-30,47,40,33,34,26,-100,96,62,38,0.00,40.00,12,5,16,0.00
2013-3-31,57,45,36,25,18,11,63,36,17,0.00,40.00,19,5,28,0.00